Wind_Speed
25 22 18 16 15 13 14 14 13 11 11 12 12 14 13 12 11 10 8 8 8 8 9 8 6 4 4 5 5 4 4 3 3 3 2 2 2 2 2 2 2 3 4 6 7 8 9 8 8
28 25 22 18 16 15 14 15 14 13 13 11 11 12 11 12 11 10 9 8 8 8 9 7 7 6 4 4 5 4 4 3 2 0 0 1 2 3 4 5 6 6 7 8 9 9 10 9 7
28 27 24 22 20 17 15 15 15 14 12 12 11 12 11 11 10 9 9 9 8 7 7 6 6 7 6 5 4 4 4 5 3 1 1 2 3 4 5 6 8 9 9 10 10 10 9 8 6
29 27 25 23 22 19 18 17 16 14 12 12 11 11 11 11 10 8 7 7 6 6 6 6 5 6 6 6 5 3 1 3 4 5 3 1 2 3 4 5 7 8 8 9 9 7 6 5 7
29 27 26 25 23 20 19 18 17 16 14 12 11 11 10 10 10 8 6 5 4 5 5 4 3 3 3 4 4 5 4 1 4 4 6 6 6 6 7 7 7 8 8 8 7 6 6 7 10
28 27 27 27 25 24 22 20 18 16 15 13 12 12 11 10 9 7 5 5 5 4 4 3 1 0 1 3 4 4 4 4 2 3 5 7 8 10 11 12 12 12 11 11 10 11 11 13 15
31 29 29 29 26 26 24 23 19 16 16 15 14 13 12 11 9 8 6 5 5 4 3 2 2 2 3 2 4 5 6 4 4 4 4 6 7 9 11 12 13 14 15 16 16 17 17 19 20
35 32 31 30 30 28 25 22 21 18 17 17 14 13 13 12 10 9 8 6 5 4 3 3 4 5 6 6 6 6 6 7 8 8 9 9 11 12 13 12 12 13 15 18 19 20 21 21 21
37 34 33 32 32 28 25 24 23 19 18 19 17 15 15 14 12 9 7 5 5 5 5 5 6 6 7 9 9 9 9 9 10 12 13 14 14 15 17 15 14 14 15 15 15 16 17 18 18
41 38 37 35 32 32 28 25 23 21 19 19 17 17 16 13 12 9 7 7 6 7 7 6 7 8 9 9 11 11 13 14 14 15 16 16 15 15 15 15 14 14 15 16 17 16 17 17 16
42 39 39 38 34 33 30 27 24 23 22 19 18 17 16 14 13 11 10 9 8 7 7 8 8 8 9 10 12 13 14 15 16 15 15 15 14 13 11 13 14 16 18 16 16 18 19 18 19
52 43 41 39 37 34 33 30 26 25 23 22 20 20 19 17 15 14 13 10 10 10 9 9 10 9 11 12 14 15 15 15 16 17 16 15 13 13 13 13 14 15 15 15 17 17 19 20 20
44 49 45 42 40 37 34 34 29 25 25 24 22 20 20 20 18 16 15 15 14 12 11 12 12 12 13 15 15 16 16 16 15 15 15 15 14 13 13 13 13 15 16 17 18 19 20 22 25
25 53 49 46 45 41 38 37 31 28 26 27 25 22 20 20 20 19 18 18 16 15 15 15 14 13 14 16 17 18 17 18 18 16 16 16 15 14 13 14 14 14 17 18 19 20 22 24 24
24 47 54 50 46 44 42 40 34 32 29 28 27 24 22 22 23 22 21 21 20 19 19 17 16 16 16 18 20 22 21 20 20 22 20 19 18 18 19 19 19 18 21 23 24 25 26 28 29
26 35 46 54 52 48 46 40 38 36 33 29 28 26 26 25 25 25 25 24 24 23 21 20 20 20 20 20 21 22 25 24 22 24 24 23 23 23 23 23 22 22 24 25 28 29 28 28 32
32 34 34 34 51 48 47 41 41 39 35 32 30 29 29 27 27 29 29 28 27 26 25 25 24 24 24 24 24 24 26 26 25 25 26 26 27 26 25 26 25 25 26 27 28 31 33 32 33
41 36 38 31 32 43 49 45 44 40 39 36 34 31 30 30 33 33 33 32 31 30 29 29 27 28 27 28 28 27 28 29 29 27 28 28 29 30 28 29 29 28 28 32 35 36 37 40 41
42 40 39 36 33 31 33 38 49 43 43 38 39 37 36 34 36 37 36 34 34 33 32 32 30 29 30 31 32 33 32 32 30 30 33 33 32 33 35 35 35 37 39 42 42 41 42 44 45
47 45 43 40 38 36 38 37 41 36 38 38 44 41 41 39 39 40 39 39 37 35 35 37 36 33 33 35 36 36 35 36 37 37 38 37 37 39 40 42 43 45 47 47 46 46 48 51 53
47 49 48 45 42 42 39 42 42 42 35 34 33 41 45 43 45 43 42 40 39 39 39 40 41 40 38 40 41 39 39 40 42 41 42 41 41 44 46 47 49 50 51 51 51 54 55 56 57
52 49 50 49 47 46 43 44 43 42 40 38 38 37 43 47 44 48 47 42 42 42 44 44 45 45 45 46 43 42 41 45 47 47 46 43 46 49 50 51 53 55 55 55 56 57 60 60 61
52 50 51 49 50 49 47 46 46 42 44 45 40 38 40 44 43 45 50 48 47 49 49 48 49 50 51 52 50 47 47 49 49 48 47 50 52 55 56 55 57 58 60 60 62 63 63 64 64
51 50 46 43 45 48 51 48 54 47 45 46 43 41 40 41 42 44 45 49 55 53 51 52 53 56 57 53 52 53 55 56 57 57 58 57 58 58 62 63 63 64 64 65 68 63 61 63 66
53 56 53 48 45 49 47 48 55 51 47 46 46 45 46 44 45 43 43 47 51 52 54 54 56 56 57 57 48 60 62 62 63 64 63 65 63 68 65 64 67 67 69 73 72 67 67 64 69
52 53 55 54 47 46 47 45 46 48 45 45 47 47 44 45 47 48 48 45 49 56 53 49 48 53 57 52 54 58 62 69 72 73 76 79 79 64 63 62 66 67 65 61 61 63 63 62 64
48 48 46 46 47 45 45 41 37 41 43 42 42 45 48 49 47 46 47 46 57 54 50 51 55 56 59 66 63 70 71 73 64 68 66 63 60 57 59 56 58 62 62 58 56 59 61 64 68
45 45 46 47 49 48 47 45 43 40 36 36 36 34 37 39 38 39 40 39 47 47 50 53 54 64 64 59 63 61 60 55 55 54 55 56 60 57 57 56 56 56 55 56 60 65 67 69 69
42 43 46 48 51 51 50 48 46 42 36 37 38 34 34 32 31 32 32 37 43 52 52 55 56 53 53 47 43 45 48 49 52 53 53 55 55 54 56 55 54 56 59 61 66 67 68 68 64
38 40 41 47 48 49 51 49 48 43 38 34 35 39 35 35 37 38 40 43 44 47 43 38 38 39 41 43 46 48 51 49 51 52 52 52 53 55 56 55 56 59 62 64 66 67 64 62 62
Wind_Direction
185 179 180 173 170 167 167 165 166 170 169 174 166 154 152 144 148 136 127 116 109 107 109 107 108 117 130 136 132 125 116 122 122 112 91 86 63 52 357 334 306 304 302 312 320 323 324 328 327
186 183 174 173 168 173 170 168 167 177 181 181 167 158 158 148 149 145 138 126 117 116 112 107 103 96 105 132 143 150 151 153 160 191 348 355 350 336 328 328 326 324 322 319 318 318 315 323 327
193 184 176 174 174 178 172 169 161 167 177 184 172 158 154 152 148 152 146 135 127 118 109 103 98 94 82 83 112 136 166 188 191 143 8 327 320 316 312 314 314 315 314 315 317 320 321 325 334
196 188 175 179 177 177 171 170 171 170 177 175 171 163 158 152 148 150 152 140 137 132 118 104 90 84 86 76 67 75 172 200 207 212 229 279 324 327 326 313 309 312 310 311 311 311 316 314 317
196 191 178 180 178 177 174 174 179 175 177 175 165 167 156 150 145 146 148 142 149 144 125 115 106 83 52 52 54 50 43 5 218 218 234 248 258 270 278 282 288 293 297 294 292 282 281 289 299
196 194 184 181 181 180 178 181 181 182 178 173 172 169 157 157 150 145 150 156 167 170 161 161 174 100 15 6 10 4 16 20 18 258 254 258 263 266 266 268 271 273 279 283 284 283 285 289 295
196 194 192 179 184 184 184 180 184 192 180 180 184 173 163 164 160 156 167 174 176 190 201 222 250 265 278 327 339 345 340 332 316 297 283 280 278 271 272 272 273 274 270 271 273 275 277 282 290
196 194 195 186 185 188 184 184 185 196 188 182 190 178 173 169 176 174 183 187 191 194 218 253 253 268 284 299 308 312 312 311 306 305 297 292 294 293 283 276 280 285 286 279 277 276 280 285 289
200 195 199 196 189 188 189 190 190 194 195 189 189 186 183 180 182 187 194 196 210 212 229 244 262 277 285 292 292 300 308 310 311 307 299 292 289 292 295 283 272 282 292 290 290 286 286 285 286
205 197 203 201 197 191 193 196 195 195 201 201 193 191 194 189 188 193 195 205 213 218 230 245 262 273 280 286 291 297 305 310 311 311 309 305 302 305 308 306 286 285 294 293 285 289 295 295 289
212 201 205 204 202 200 195 200 200 203 204 207 204 197 201 202 199 198 207 211 219 230 242 253 262 270 275 280 287 295 301 301 302 307 312 313 311 309 309 305 299 301 299 295 293 292 294 292 291
207 211 208 209 206 205 201 203 205 206 208 211 215 205 204 206 209 208 212 215 221 228 241 257 263 267 275 280 289 293 293 294 301 304 313 316 316 310 302 299 300 299 301 299 297 297 299 298 297
216 209 211 212 211 207 206 208 210 211 212 215 219 219 216 212 217 217 218 220 225 230 232 248 261 273 282 285 284 284 290 293 297 302 306 308 306 305 303 299 297 299 299 300 302 303 301 300 300
220 219 210 215 214 211 209 211 209 214 212 215 221 223 223 224 223 227 226 230 232 236 240 242 259 272 281 284 287 287 287 292 293 290 289 292 293 296 296 294 296 301 302 305 307 306 305 304 305
231 213 209 213 217 216 215 214 210 214 214 215 221 224 225 229 230 232 231 236 238 239 243 250 259 267 276 284 286 290 289 287 287 288 288 288 289 291 290 293 297 300 300 303 303 301 300 301 301
219 206 218 216 213 219 219 216 213 216 218 218 219 226 230 230 236 239 238 238 242 244 247 251 255 263 271 277 283 285 286 286 284 283 285 284 281 282 286 288 289 294 295 297 294 292 290 292 294
224 217 214 213 217 221 226 218 221 218 220 223 223 224 233 237 238 241 242 241 242 245 249 253 257 262 269 276 280 280 283 284 284 282 281 281 280 280 279 280 284 287 290 293 292 290 287 285 284
213 215 213 216 218 224 229 227 226 227 226 226 227 228 231 235 240 242 244 247 247 247 251 255 258 264 271 275 278 282 281 284 284 285 285 283 279 277 275 274 276 277 286 291 290 286 284 285 285
220 225 225 228 230 228 224 226 226 227 228 225 229 227 229 233 238 244 248 251 253 252 253 256 261 268 276 278 278 281 285 285 284 281 282 279 279 279 277 272 270 274 281 288 287 285 284 289 288
221 226 231 230 232 232 228 228 230 228 229 234 232 232 230 234 242 244 247 251 253 255 256 258 259 262 268 274 275 276 280 281 277 279 279 278 279 280 281 278 274 275 279 286 290 291 291 290 292
230 228 235 237 237 233 234 234 234 231 233 239 238 238 234 236 241 244 246 249 253 255 256 257 260 262 265 271 274 275 277 276 278 277 278 278 283 285 284 281 280 281 283 286 290 292 291 290 295
230 232 235 240 243 245 240 240 233 240 236 240 242 241 241 241 245 246 249 252 253 256 258 260 260 264 267 267 272 274 273 276 277 279 278 278 283 286 287 285 283 282 282 281 287 291 292 292 293
232 232 234 238 244 246 244 247 235 239 239 244 244 242 245 245 248 247 249 254 257 257 260 257 259 261 265 265 272 269 272 275 278 278 279 279 280 282 284 283 282 282 283 281 287 291 289 290 293
228 228 231 236 241 246 243 245 245 240 244 242 239 242 249 248 252 258 256 254 256 256 257 258 261 265 266 267 267 272 274 275 275 275 276 277 279 280 283 286 283 281 283 282 286 288 289 291 295
228 228 235 242 245 244 244 248 246 248 246 246 249 254 255 254 258 254 259 258 253 251 256 261 267 263 265 269 259 270 275 276 275 275 276 277 277 278 282 282 284 282 280 279 284 289 292 296 296
229 232 237 240 245 247 248 248 248 252 253 250 254 256 257 256 257 260 265 264 264 254 258 265 270 271 269 270 277 276 272 278 278 276 284 275 274 278 282 285 286 288 287 288 291 294 296 297 296
231 230 230 235 238 239 243 245 246 246 249 251 251 252 254 256 264 264 265 269 261 255 271 273 276 277 280 270 267 263 272 278 281 284 275 275 276 280 285 288 291 293 294 297 297 299 299 299 300
230 232 229 228 233 239 239 240 247 251 254 257 257 255 254 255 257 259 262 261 258 269 261 266 269 260 263 261 263 268 274 278 280 284 285 287 291 291 294 296 297 297 299 301 300 299 300 301 299
238 234 233 231 234 239 245 246 247 250 252 260 261 259 255 256 259 261 264 264 265 264 265 264 264 262 275 276 278 281 282 284 287 289 291 293 294 295 295 296 296 297 298 297 298 300 302 300 296
237 238 238 236 238 240 245 249 250 251 257 261 262 263 265 262 264 265 264 264 262 263 264 266 266 270 280 280 280 281 284 288 288 289 291 292 292 291 292 295 295 295 296 299 300 300 299 293 290
Height
5848 5852 5857 5861 5866 5866 5868 5869 5871 5874 5876 5876 5878 5878 5879 5880 5883 5886 5884 5886 5887 5888 5889 5890 5891 5892 5893 5893 5894 5894 5895 5895 5895 5895 5895 5896 5895 5896 5896 5896 5897 5897 5897 5896 5896 5895 5895 5895 5894
5846 5850 5855 5860 5863 5865 5867 5868 5869 5873 5875 5877 5878 5880 5880 5881 5883 5884 5885 5886 5888 5889 5889 5890 5891 5892 5892 5893 5894 5894 5895 5895 5896 5896 5896 5897 5897 5897 5897 5897 5897 5897 5897 5896 5895 5895 5894 5893 5893
5845 5848 5854 5858 5861 5864 5867 5868 5869 5872 5874 5877 5878 5879 5880 5881 5883 5885 5886 5887 5888 5890 5890 5891 5891 5892 5892 5892 5893 5893 5893 5894 5895 5895 5895 5896 5896 5897 5897 5897 5897 5897 5896 5896 5895 5894 5893 5893 5892
5844 5849 5852 5856 5859 5863 5866 5869 5870 5871 5874 5876 5878 5879 5880 5881 5882 5885 5886 5887 5889 5890 5891 5892 5893 5893 5892 5892 5893 5893 5893 5893 5893 5894 5894 5895 5896 5896 5897 5896 5896 5895 5895 5894 5894 5893 5892 5892 5892
5843 5847 5850 5855 5858 5862 5865 5868 5870 5871 5874 5877 5878 5879 5881 5882 5883 5885 5887 5888 5889 5890 5891 5892 5893 5893 5894 5893 5893 5892 5892 5893 5893 5894 5894 5894 5894 5895 5895 5894 5894 5893 5893 5892 5892 5891 5890 5890 5889
5841 5846 5849 5852 5856 5860 5863 5866 5869 5871 5874 5876 5878 5879 5881 5883 5884 5885 5887 5888 5888 5890 5891 5892 5893 5893 5893 5893 5894 5894 5893 5893 5893 5894 5894 5894 5893 5893 5893 5892 5892 5892 5892 5891 5891 5890 5889 5888 5887
5837 5843 5847 5849 5854 5857 5860 5863 5867 5870 5872 5875 5878 5879 5881 5882 5884 5885 5886 5887 5888 5890 5891 5892 5893 5893 5893 5892 5893 5893 5893 5893 5893 5892 5892 5892 5891 5890 5890 5890 5890 5890 5889 5888 5887 5887 5886 5886 5885
5834 5840 5844 5847 5850 5855 5859 5862 5864 5868 5870 5873 5875 5878 5880 5881 5883 5883 5885 5886 5888 5889 5890 5891 5891 5892 5893 5893 5892 5891 5891 5892 5892 5891 5891 5891 5890 5890 5889 5888 5887 5887 5887 5886 5885 5884 5884 5884 5883
5831 5837 5841 5845 5847 5853 5858 5860 5863 5866 5869 5871 5873 5877 5878 5879 5881 5883 5885 5886 5887 5888 5888 5889 5890 5891 5892 5892 5892 5891 5890 5890 5890 5889 5889 5888 5887 5887 5886 5885 5884 5884 5883 5883 5883 5882 5881 5880 5879
5827 5833 5837 5841 5846 5849 5855 5858 5861 5864 5866 5869 5872 5874 5877 5879 5880 5882 5884 5884 5885 5886 5887 5887 5888 5889 5890 5890 5890 5890 5889 5889 5887 5886 5886 5886 5885 5885 5884 5883 5882 5880 5879 5879 5879 5879 5879 5878 5876
5824 5829 5833 5837 5843 5847 5851 5856 5858 5861 5864 5868 5871 5872 5875 5877 5879 5880 5882 5883 5884 5885 5885 5886 5886 5887 5888 5888 5888 5888 5888 5886 5886 5884 5884 5883 5882 5882 5880 5880 5880 5880 5879 5877 5876 5875 5874 5873 5872
5819 5825 5829 5833 5838 5845 5848 5852 5856 5858 5863 5866 5868 5869 5872 5875 5877 5878 5880 5881 5882 5882 5884 5885 5885 5885 5886 5886 5886 5886 5884 5883 5883 5882 5882 5881 5879 5879 5877 5877 5877 5877 5875 5874 5873 5872 5872 5871 5870
5812 5820 5824 5828 5834 5840 5844 5848 5852 5856 5860 5863 5865 5867 5870 5873 5874 5875 5877 5878 5879 5880 5880 5881 5882 5883 5884 5884 5883 5881 5881 5880 5880 5879 5879 5879 5878 5876 5875 5874 5873 5872 5872 5870 5870 5869 5868 5866 5865
5806 5811 5818 5823 5829 5833 5839 5843 5848 5852 5856 5859 5862 5864 5866 5870 5872 5872 5874 5876 5876 5877 5878 5877 5880 5880 5881 5880 5880 5879 5877 5878 5877 5875 5874 5875 5874 5873 5871 5870 5869 5867 5866 5866 5866 5865 5863 5861 5860
5798 5802 5807 5815 5822 5827 5833 5839 5844 5846 5851 5856 5858 5860 5861 5865 5867 5869 5870 5873 5873 5874 5874 5876 5876 5876 5876 5876 5876 5876 5875 5874 5874 5873 5872 5871 5870 5868 5867 5865 5864 5864 5863 5862 5860 5858 5857 5855 5853
5795 5798 5803 5810 5816 5822 5827 5835 5839 5842 5847 5851 5854 5856 5858 5860 5863 5865 5865 5867 5869 5869 5871 5872 5872 5872 5872 5872 5872 5872 5872 5870 5869 5867 5867 5866 5865 5864 5863 5862 5859 5859 5858 5856 5854 5852 5849 5847 5846
5788 5796 5801 5803 5810 5816 5820 5830 5832 5838 5842 5846 5850 5852 5854 5856 5858 5859 5859 5861 5863 5865 5866 5867 5867 5867 5868 5868 5868 5867 5866 5865 5864 5862 5861 5860 5860 5859 5859 5857 5855 5852 5851 5850 5848 5847 5844 5842 5837
5784 5790 5796 5799 5806 5808 5812 5822 5825 5832 5836 5840 5843 5847 5850 5851 5850 5852 5854 5855 5858 5860 5861 5861 5861 5862 5864 5864 5863 5863 5861 5861 5859 5857 5856 5854 5853 5852 5852 5851 5849 5845 5843 5841 5839 5837 5834 5832 5829
5778 5782 5787 5792 5797 5800 5806 5812 5817 5821 5827 5832 5836 5839 5842 5844 5844 5847 5849 5851 5853 5855 5856 5856 5857 5858 5859 5858 5858 5857 5856 5855 5853 5852 5850 5848 5846 5845 5844 5842 5840 5838 5835 5831 5829 5827 5824 5821 5818
5770 5775 5781 5786 5790 5794 5799 5806 5808 5812 5817 5822 5827 5831 5833 5836 5839 5842 5843 5845 5846 5848 5849 5850 5850 5851 5851 5852 5851 5850 5849 5848 5846 5845 5843 5841 5840 5838 5836 5835 5831 5828 5826 5822 5819 5816 5813 5810 5805
5763 5769 5774 5780 5784 5787 5792 5796 5801 5806 5811 5816 5819 5824 5827 5829 5831 5833 5836 5837 5839 5841 5841 5842 5843 5843 5843 5844 5844 5843 5842 5840 5838 5836 5834 5833 5831 5829 5827 5824 5822 5819 5816 5812 5808 5805 5802 5799 5794
5755 5762 5767 5771 5775 5779 5786 5788 5796 5799 5804 5808 5812 5815 5818 5822 5824 5827 5828 5829 5831 5833 5835 5835 5836 5835 5835 5836 5835 5835 5833 5830 5829 5827 5825 5824 5822 5819 5816 5813 5810 5807 5804 5801 5797 5793 5789 5786 5782
5747 5754 5759 5764 5768 5772 5778 5782 5788 5792 5796 5801 5805 5809 5812 5815 5817 5818 5819 5822 5823 5825 5826 5826 5827 5826 5826 5826 5826 5825 5824 5821 5819 5818 5816 5813 5810 5808 5806 5802 5800 5795 5792 5789 5784 5779 5773 5769 5766
5740 5746 5751 5756 5760 5763 5770 5776 5775 5785 5790 5793 5798 5801 5804 5806 5808 5809 5810 5812 5813 5814 5815 5816 5816 5816 5816 5816 5816 5814 5813 5811 5808 5806 5803 5800 5797 5795 5793 5789 5786 5783 5779 5775 5770 5764 5758 5754 5749
5732 5738 5743 5749 5752 5757 5763 5767 5770 5775 5783 5787 5790 5793 5795 5797 5799 5800 5800 5801 5802 5803 5805 5805 5805 5805 5805 5805 5804 5804 5801 5798 5796 5793 5791 5787 5784 5781 5778 5774 5771 5768 5764 5760 5756 5752 5746 5740 5735
5725 5730 5736 5740 5746 5752 5755 5760 5764 5768 5775 5779 5780 5783 5786 5787 5789 5790 5791 5790 5790 5793 5794 5795 5794 5794 5793 5792 5791 5789 5788 5785 5782 5780 5778 5774 5771 5765 5763 5760 5758 5755 5752 5747 5742 5737 5732 5726 5722
5717 5721 5729 5734 5738 5744 5748 5754 5757 5758 5763 5768 5771 5773 5775 5777 5779 5780 5781 5782 5778 5783 5784 5784 5783 5782 5780 5780 5779 5776 5775 5773 5769 5766 5763 5760 5755 5751 5750 5746 5743 5741 5737 5732 5728 5724 5719 5713 5706
5709 5717 5721 5725 5730 5736 5740 5746 5749 5753 5756 5757 5761 5763 5765 5767 5768 5770 5771 5771 5772 5772 5771 5773 5773 5771 5770 5765 5765 5763 5761 5760 5758 5754 5751 5747 5745 5742 5737 5734 5730 5726 5722 5719 5715 5711 5704 5697 5690
5701 5706 5713 5718 5722 5726 5733 5737 5742 5746 5749 5750 5751 5755 5756 5757 5758 5760 5761 5762 5762 5762 5761 5761 5760 5760 5760 5757 5755 5754 5752 5748 5745 5742 5738 5735 5732 5728 5724 5721 5717 5714 5709 5705 5700 5693 5687 5682 5676
5695 5699 5704 5708 5716 5721 5725 5729 5732 5738 5741 5744 5744 5746 5747 5749 5750 5751 5751 5752 5753 5752 5751 5750 5750 5749 5748 5747 5744 5742 5740 5736 5733 5730 5727 5724 5720 5716 5713 5709 5705 5700 5695 5689 5683 5679 5672 5668 5663